Wind_Speed
7 8 10 12 12 13 11 10 12 12 11 10 10 11 12 12 12 12 12 12 12 12 13 13 14 14 13 13 13 12 11 10 10 9 9 9 9 10 9 9 9 7 7
8 11 12 12 12 12 11 10 10 12 11 10 9 11 11 12 11 12 12 13 13 13 13 13 13 12 13 12 11 9 8 8 7 7 7 6 7 9 8 8 7 8 8
10 11 12 12 11 11 10 9 9 11 10 10 10 10 11 11 11 12 12 12 13 13 13 12 12 12 12 11 10 9 8 7 6 7 3 7 8 8 8 7 7 7 8
12 13 12 11 10 9 9 8 8 9 10 10 10 10 10 10 11 11 13 13 12 12 12 12 11 11 10 10 10 9 8 8 8 8 8 5 8 10 8 8 8 7 7
16 15 13 11 9 8 9 8 8 8 9 10 10 10 10 10 11 11 11 12 12 11 11 10 10 9 8 9 9 8 7 8 8 11 8 5 8 7 7 7 9 9 9
18 17 14 12 9 8 8 8 8 8 8 9 10 10 10 10 11 11 10 10 10 9 9 8 7 7 7 7 7 7 6 1 6 6 9 9 7 9 9 10 10 11 12
18 16 14 12 11 9 8 7 8 8 8 8 9 9 9 10 10 10 9 9 8 8 7 6 6 5 4 4 3 2 2 3 8 10 11 9 10 10 10 12 13 13 14
15 14 13 11 11 10 7 7 7 8 8 8 8 8 8 9 9 9 9 8 6 6 5 5 3 3 4 4 3 4 4 7 12 12 13 12 10 11 13 15 17 17 17
13 13 12 11 9 9 7 7 7 7 8 8 7 7 7 7 7 7 7 6 5 4 4 3 2 4 5 4 5 6 7 9 11 11 12 13 12 14 15 18 15 16 17
15 14 13 12 10 7 7 6 6 6 6 7 7 6 5 5 5 4 4 4 3 3 2 2 2 3 2 2 2 3 6 6 8 6 16 20 16 17 17 18 19 21 20
16 15 14 12 11 9 8 8 7 7 7 5 4 4 4 5 5 4 3 2 3 2 2 2 3 2 3 4 6 4 4 6 6 13 20 21 22 23 22 15 20 20 26
17 17 15 13 12 11 11 11 9 6 4 5 5 5 4 6 4 2 1 0 1 1 3 4 7 7 8 9 11 9 10 11 15 19 20 20 26 26 27 27 28 26 26
19 19 19 16 15 16 14 12 7 4 5 6 6 5 5 3 4 4 3 3 4 7 8 10 13 13 14 13 14 13 16 19 20 22 23 25 27 28 26 23 20 19 20
22 18 17 15 15 11 10 7 8 9 7 6 7 5 5 5 8 7 7 6 9 10 12 12 14 14 13 15 14 14 15 17 18 19 19 18 18 18 18 18 16 13 13
22 20 18 14 13 9 10 10 10 9 8 6 8 7 6 7 8 7 8 10 10 13 13 14 14 15 13 12 10 11 11 12 12 13 14 13 13 12 12 13 15 16 17
18 22 19 17 16 13 13 12 10 9 7 7 8 9 7 8 7 7 9 12 10 12 12 12 14 14 13 9 10 11 11 10 9 8 8 9 10 11 14 16 17 18 19
14 15 17 18 17 15 13 13 11 10 7 8 7 8 8 8 7 9 10 10 11 11 12 12 13 11 11 7 7 7 6 6 4 5 6 8 9 11 12 14 16 18 20
9 9 13 16 19 18 14 11 10 8 6 7 8 7 9 10 9 10 10 9 9 10 12 11 12 12 11 6 1 3 4 5 9 9 10 11 12 14 15 17 18 19 19
14 6 13 20 20 18 16 11 6 6 7 9 8 9 9 9 9 9 9 8 8 8 11 11 9 8 6 6 4 3 5 5 6 7 8 11 12 14 16 18 21 22 22
13 6 5 19 20 16 13 10 8 8 10 9 9 7 7 5 7 6 7 6 5 5 6 8 8 7 6 2 3 4 5 5 6 8 12 14 17 18 19 21 22 24 26
17 12 7 10 23 19 13 20 24 26 21 13 11 4 1 4 6 7 6 5 3 2 2 4 3 4 10 9 5 5 7 6 7 9 12 15 17 19 21 23 24 25 27
15 14 12 11 14 19 16 22 26 25 21 15 15 11 7 8 11 10 9 8 5 3 3 3 5 5 7 6 4 4 4 3 6 9 12 13 14 18 20 23 25 26 28
15 15 14 14 13 11 12 13 13 20 24 23 29 29 26 26 21 15 10 7 7 6 4 5 7 6 7 4 4 5 6 8 10 12 13 16 19 20 21 23 24 26 30
16 17 17 14 11 8 8 5 2 6 12 16 14 21 27 26 21 22 24 19 10 9 9 8 8 5 3 2 2 3 5 7 9 13 14 17 19 21 23 25 27 29 32
20 17 14 14 12 11 10 5 4 3 2 3 5 10 13 18 21 21 23 17 13 12 13 12 6 3 1 2 2 3 6 7 10 11 12 14 18 22 24 26 28 30 32
21 19 17 13 15 14 12 8 7 6 6 7 8 10 13 14 17 18 14 13 10 10 9 6 4 2 1 2 3 5 7 9 11 12 14 17 19 22 26 27 28 30 33
Wind_Direction
208 195 175 165 162 154 145 141 128 116 105 91 84 80 83 88 94 100 99 95 92 91 89 87 85 85 83 79 77 76 75 78 79 77 71 69 77 74 48 39 32 21 20
221 184 179 168 163 154 150 147 131 118 110 98 87 82 78 79 88 96 100 101 100 99 97 95 93 89 83 80 81 84 85 79 77 77 70 66 49 58 46 30 27 23 19
192 183 180 170 163 154 143 138 131 118 110 101 92 84 83 81 83 94 99 99 103 104 102 97 91 83 78 77 76 69 64 61 51 53 63 35 44 37 33 20 13 11 7
206 188 179 170 161 152 138 136 128 118 113 103 96 93 91 90 87 91 95 96 97 98 97 94 87 81 76 72 69 60 45 32 7 6 33 35 33 23 7 360 355 351 348
192 186 176 166 157 145 134 133 129 124 117 107 99 94 94 93 89 86 89 92 93 92 93 91 87 81 75 72 69 59 45 33 335 338 354 30 24 348 343 340 335 330 325
181 182 172 161 149 139 135 133 128 124 118 112 104 102 101 98 98 95 92 94 97 98 96 93 87 78 69 65 65 66 65 108 288 305 325 348 341 335 326 323 323 321 319
176 178 166 157 146 143 138 138 137 132 125 116 107 106 105 103 102 100 98 94 94 94 90 86 82 80 75 66 75 142 149 242 278 302 321 323 334 328 321 318 315 313 310
174 168 163 158 156 146 150 147 148 142 134 122 113 106 105 105 104 102 100 99 97 94 89 81 76 68 52 31 338 317 305 288 304 320 332 329 337 327 327 323 315 308 304
176 167 165 165 165 148 158 159 157 156 144 132 123 117 117 111 108 107 107 105 98 85 75 64 35 38 32 3 340 331 318 317 319 314 348 348 330 325 332 326 318 309 306
175 173 171 170 168 171 172 183 170 169 164 153 153 139 128 120 112 112 104 96 85 80 64 45 13 26 24 305 329 346 346 349 351 301 301 308 311 313 306 314 314 310 304
170 177 179 172 176 175 187 189 184 186 194 177 157 134 125 138 140 113 51 58 75 68 47 1 341 329 308 293 292 312 308 311 293 291 301 308 303 292 296 307 289 297 303
179 178 177 175 189 182 190 195 194 207 197 189 167 151 159 161 161 150 116 216 91 15 322 326 313 306 303 294 289 295 281 275 273 276 276 273 285 284 288 286 283 296 300
196 192 180 185 187 199 200 202 183 187 197 210 200 182 176 216 214 236 243 237 309 328 326 321 311 314 308 310 297 300 290 280 283 287 290 292 295 294 299 309 305 307 309
207 202 196 198 201 216 221 203 182 175 199 214 234 234 222 233 253 268 273 295 327 327 315 316 310 309 308 304 310 303 294 298 298 298 302 308 307 315 323 325 334 337 334
201 203 206 206 210 212 207 204 206 197 206 229 252 254 249 251 260 277 307 311 313 310 314 313 304 305 315 328 311 307 308 306 311 314 317 318 326 338 342 340 335 335 330
199 203 204 209 216 217 216 217 219 226 222 233 252 262 257 262 274 293 297 295 303 304 301 292 301 314 318 327 319 319 319 319 328 339 342 348 342 343 338 335 333 332 329
193 206 218 225 222 219 222 229 227 235 239 257 261 276 278 274 280 280 282 293 300 299 291 296 303 307 316 314 317 331 340 341 351 343 347 348 344 339 341 335 338 340 338
194 217 229 235 227 222 219 233 250 265 272 267 263 263 274 280 279 279 284 292 292 298 299 315 311 310 318 329 13 20 359 350 351 358 353 355 351 350 347 347 344 342 339
193 193 243 235 219 211 211 219 243 280 280 262 264 270 270 279 281 290 294 296 297 312 315 321 319 316 331 355 350 340 336 351 12 356 354 3 0 358 354 349 347 344 344
210 228 274 240 218 201 200 224 253 274 280 286 276 261 275 279 289 297 298 296 308 338 344 353 337 323 320 331 312 344 330 343 11 2 357 360 358 0 2 357 356 350 348
220 240 201 238 228 212 273 277 262 251 260 267 258 233 108 16 348 344 323 317 302 298 334 340 305 292 321 309 343 323 329 350 347 5 6 6 360 358 1 354 353 349 346
222 217 211 206 195 228 240 253 261 246 241 242 241 203 291 324 355 355 340 327 314 349 2 353 325 308 288 298 318 319 344 356 356 9 8 357 1 357 353 350 347 346 344
201 213 217 223 222 236 255 266 258 240 241 250 256 248 274 288 288 291 314 326 334 338 332 314 286 270 277 300 321 346 345 351 354 358 359 349 347 347 344 344 343 344 342
208 217 225 224 231 228 235 246 265 246 248 247 266 240 252 268 278 271 278 292 308 317 318 294 262 262 257 275 309 328 338 343 345 345 348 341 339 336 340 342 342 342 341
212 218 228 231 233 230 230 229 216 233 301 279 269 260 264 265 271 266 272 268 261 282 278 263 255 243 238 272 301 323 329 338 337 337 335 329 334 334 341 342 342 342 339
214 221 221 228 230 231 238 234 231 232 254 258 274 262 257 272 274 270 257 249 242 249 264 266 260 248 262 275 311 332 335 330 327 326 330 334 336 337 336 339 339 338 340
Height
3170 3171 3173 3174 3174 3175 3176 3177 3176 3176 3177 3178 3179 3179 3179 3179 3179 3180 3181 3181 3182 3182 3183 3183 3184 3184 3184 3184 3184 3184 3184 3184 3183 3182 3182 3182 3181 3180 3181 3182 3181 3181 3180
3169 3171 3172 3174 3175 3175 3176 3177 3177 3177 3178 3178 3179 3179 3179 3179 3180 3180 3181 3182 3182 3183 3184 3184 3185 3185 3185 3186 3186 3186 3185 3185 3184 3184 3184 3184 3183 3182 3182 3182 3181 3181 3180
3169 3171 3173 3174 3175 3176 3177 3178 3178 3178 3179 3179 3179 3180 3180 3180 3181 3181 3181 3183 3183 3184 3185 3186 3187 3187 3187 3188 3188 3187 3186 3186 3186 3185 3185 3185 3184 3183 3182 3182 3182 3181 3181
3169 3171 3173 3175 3176 3177 3177 3178 3179 3179 3179 3180 3180 3180 3181 3181 3182 3182 3182 3183 3185 3185 3186 3187 3187 3188 3188 3188 3188 3188 3187 3187 3185 3185 3185 3184 3183 3183 3183 3182 3182 3181 3180
3168 3171 3173 3175 3177 3178 3178 3179 3180 3180 3180 3180 3181 3181 3181 3182 3182 3183 3183 3183 3184 3185 3186 3187 3187 3188 3188 3188 3189 3189 3188 3188 3183 3182 3184 3183 3182 3183 3182 3182 3181 3180 3179
3167 3170 3172 3174 3177 3178 3179 3180 3181 3181 3181 3181 3181 3181 3182 3182 3183 3183 3184 3185 3185 3186 3186 3187 3187 3188 3188 3188 3189 3189 3188 3185 3181 3181 3180 3181 3182 3182 3182 3181 3180 3179 3178
3167 3170 3172 3174 3175 3177 3179 3180 3181 3181 3182 3182 3182 3183 3183 3183 3183 3184 3185 3186 3186 3187 3188 3188 3188 3188 3188 3188 3187 3185 3185 3183 3180 3181 3181 3181 3181 3181 3180 3179 3178 3176 3175
3167 3169 3172 3174 3175 3176 3178 3180 3181 3182 3182 3183 3183 3184 3184 3184 3184 3184 3185 3186 3187 3187 3187 3188 3188 3188 3188 3188 3187 3186 3185 3183 3182 3183 3182 3181 3180 3180 3179 3178 3177 3175 3173
3166 3168 3170 3173 3175 3175 3178 3179 3181 3182 3182 3182 3183 3183 3184 3185 3185 3185 3185 3185 3186 3187 3187 3187 3187 3187 3188 3187 3186 3185 3185 3184 3182 3181 3180 3179 3179 3178 3177 3175 3174 3172 3170
3165 3167 3169 3171 3174 3176 3177 3179 3180 3181 3182 3182 3181 3182 3184 3185 3185 3185 3185 3186 3186 3186 3187 3186 3186 3187 3186 3184 3184 3183 3183 3182 3181 3180 3178 3178 3176 3175 3174 3173 3171 3169 3167
3163 3166 3168 3171 3172 3174 3176 3178 3179 3180 3181 3182 3183 3183 3183 3185 3184 3185 3186 3186 3186 3186 3186 3186 3186 3186 3185 3183 3183 3182 3182 3181 3179 3178 3176 3174 3171 3170 3170 3169 3167 3165 3163
3162 3164 3167 3169 3170 3172 3173 3176 3177 3180 3182 3182 3182 3182 3182 3184 3184 3184 3185 3186 3185 3185 3185 3185 3184 3183 3183 3181 3180 3181 3180 3178 3177 3175 3173 3171 3167 3166 3164 3164 3163 3161 3157
3161 3162 3164 3167 3168 3168 3171 3174 3177 3179 3180 3181 3181 3181 3181 3181 3182 3183 3183 3183 3184 3184 3184 3183 3182 3182 3180 3180 3178 3177 3175 3174 3172 3170 3168 3166 3165 3162 3160 3158 3158 3156 3153
3158 3163 3164 3166 3167 3170 3171 3174 3176 3176 3178 3179 3181 3181 3181 3181 3181 3182 3182 3182 3183 3183 3181 3180 3179 3178 3178 3176 3175 3173 3172 3170 3169 3167 3165 3164 3162 3159 3157 3155 3154 3152 3150
3157 3161 3163 3165 3167 3168 3169 3170 3172 3173 3176 3178 3180 3180 3181 3180 3180 3180 3182 3182 3181 3180 3180 3178 3176 3175 3175 3174 3171 3170 3169 3167 3167 3165 3164 3162 3160 3158 3156 3154 3152 3150 3147
3157 3159 3161 3163 3165 3167 3168 3168 3169 3171 3174 3175 3178 3178 3178 3178 3179 3180 3180 3180 3180 3179 3177 3175 3173 3172 3172 3172 3170 3168 3167 3165 3165 3163 3162 3160 3159 3157 3155 3152 3150 3147 3145
3157 3159 3161 3162 3164 3165 3168 3169 3169 3171 3174 3174 3175 3176 3176 3177 3178 3177 3177 3178 3177 3176 3174 3173 3172 3171 3170 3171 3168 3166 3165 3164 3165 3163 3162 3160 3158 3156 3154 3151 3149 3146 3142
3156 3157 3160 3162 3162 3163 3165 3166 3168 3170 3172 3173 3173 3173 3174 3176 3176 3175 3176 3176 3174 3174 3171 3172 3171 3170 3169 3169 3168 3165 3165 3164 3162 3161 3159 3159 3156 3154 3152 3149 3146 3144 3141
3154 3155 3157 3157 3158 3159 3161 3164 3166 3168 3170 3171 3172 3171 3172 3174 3173 3173 3173 3173 3172 3172 3170 3170 3170 3168 3167 3166 3165 3164 3163 3162 3161 3159 3158 3157 3156 3153 3150 3147 3144 3141 3138
3152 3153 3154 3155 3155 3157 3159 3161 3163 3166 3169 3168 3169 3170 3171 3171 3171 3171 3170 3170 3169 3168 3168 3168 3169 3168 3167 3166 3163 3162 3162 3160 3160 3158 3155 3154 3152 3150 3149 3144 3142 3138 3134
3149 3151 3152 3151 3153 3154 3157 3156 3158 3162 3165 3167 3169 3168 3168 3169 3169 3169 3168 3168 3167 3165 3166 3164 3165 3166 3164 3165 3162 3160 3160 3159 3158 3158 3155 3153 3151 3149 3147 3142 3139 3135 3132
3147 3149 3150 3150 3150 3153 3153 3155 3156 3156 3159 3162 3165 3165 3166 3167 3168 3168 3168 3167 3166 3165 3165 3163 3165 3165 3164 3162 3162 3161 3160 3160 3158 3157 3155 3153 3152 3149 3146 3142 3138 3133 3129
3143 3145 3147 3148 3149 3151 3151 3151 3151 3153 3156 3157 3160 3162 3164 3163 3166 3166 3167 3166 3164 3163 3164 3163 3165 3165 3163 3161 3160 3161 3160 3158 3156 3156 3154 3151 3149 3147 3144 3140 3136 3131 3125
3140 3142 3144 3146 3148 3148 3149 3150 3150 3151 3152 3154 3155 3156 3160 3161 3163 3164 3164 3164 3163 3164 3163 3163 3164 3162 3162 3160 3160 3160 3160 3159 3158 3156 3154 3150 3147 3145 3142 3137 3132 3127 3122
3135 3139 3141 3143 3145 3146 3148 3149 3148 3149 3151 3153 3153 3155 3157 3159 3160 3160 3161 3161 3161 3161 3162 3162 3160 3160 3160 3160 3160 3160 3159 3158 3157 3155 3153 3151 3146 3142 3137 3134 3129 3123 3119
3131 3134 3137 3140 3142 3144 3145 3147 3148 3149 3150 3151 3152 3154 3156 3156 3157 3157 3157 3157 3157 3158 3159 3159 3159 3159 3159 3160 3160 3159 3158 3157 3156 3154 3152 3148 3144 3139 3135 3131 3127 3121 3114